Location: *
(47.2969°N, 10.2930°E)
Time: 10:33:42
(UTC+00:00)

Abrixas rocket - Pass Details

Date: 09 April 2020
Orbit: 345 x 352 km, 48.4° (Epoch: 25 May)

Event Time Altitude Azimuth Distance (km) Brightness Sun altitude
Rises 19:59:33 0° 283° (WNW) 2,163 7.1 -19.2°
Reaches altitude 10° 20:01:42 10° 271° (W) 1,320 5.5 -19.5°
Enters shadow 20:03:47 26° 230° (SW) 729 3.5 -19.7°
